Location: Unspecified
(47.4992°N, 121.7766°W)
Time: 02:22:51
(UTC-08:00)

Okean 3 - Visible Passes

Search period start: 18 November 2017 00:00
Search period end: 28 November 2017 00:00
Orbit: 576 x 603 km, 82.5° (Epoch: 17 November)

Date Brightness Start Highest point End Pass type
(mag) Time Alt. Az. Time Alt. Az. Time Alt. Az.
18 Nov 4.6 06:39:22 10° N 06:43:26 47° ENE 06:47:29 10° SSE visible
20 Nov 6.5 05:20:29 10° NE 05:21:57 12° ENE 05:23:25 10° E visible
21 Nov 6.3 05:27:39 10° NNE 05:30:19 16° ENE 05:32:59 10° ESE visible
22 Nov 5.9 05:35:18 10° NNE 05:38:40 22° ENE 05:41:59 10° ESE visible
23 Nov 5.3 05:43:09 10° N 05:46:56 31° ENE 05:50:44 10° SE visible
24 Nov 4.6 05:51:07 10° N 05:55:11 45° ENE 05:59:15 10° SSE visible
25 Nov 3.8 05:59:11 10° N 06:03:24 67° E 06:07:36 10° SSE visible
26 Nov 6.6 04:32:24 10° NE 04:33:41 11° ENE 04:34:57 10° E visible
26 Nov 3.4 06:07:19 10° N 06:11:34 83° W 06:15:48 10° S visible
27 Nov 6.3 04:39:27 10° NNE 04:42:03 16° ENE 04:44:39 10° ESE visible
27 Nov 3.5 06:15:33 10° NNW 06:19:41 56° W 06:23:51 10° S visible
27 Nov 5.3 18:45:11 10° S 18:46:25 19° S 18:46:25 19° S visible
